User: anonymous   Login
Location: Onan Observatory
(44.8103°N, 93.9397°W)
Time: 06:40:33
(UTC-06:00)
Language:

Iridium 90 - Orbit

View from above orbital plane
View from above orbital plane
View from above satellite
View from above satellite

Ground track
Ground track

The orbit data is extracted from the following two-line orbital elements,

1 27373U 02005B   14329.19103127  .00000508  00000-0  14586-3 0  5785
2 27373 086.4479 020.8854 0001516 150.3343 209.7944 14.42957038676525
Epoch (UTC): 25 November 2014 04:35:05
Eccentricity: 0.0001516
inclination: 86.4479°
perigee height: 747 km
apogee height: 750 km
right ascension of ascending node: 20.8854°
argument of perigee: 150.3343°
revolutions per day: 14.42957038
mean anomaly at epoch: 209.7944°
orbit number at epoch: 67652

The dashed part of the orbit path shows where the satellite is in the earth's shadow,  

DLR